[[{"header":{"parameterUnit":"m.s-1","parameterCategory":2,"la1":30.2991,"la2":30.254,"lo1":-89.0895,"lo2":-89.0444,"dy":0.0017,"dx":0.0017,"nx":28,"ny":28,"refTime":"2023-09-03T09:00:00:Z","depth":"0","parameterNumber":2,"parameterNumberName":"U-component_of_CURRENTS"},"data":[0,0,0,0,0,0,0,0,0,0,0,0,0,0,0,0,0,0,0,0,0,0,0,0,0,0,0,0,0,0,0,0,0,0,0,0,0,0,0,0,0,0,0,0,0,0,0,0,0,0,0,0,0,0,0,0,0,0,-0.2074,-0.2075,0,-0.2076,-0.2075,-0.2075,-0.204,-0.2039,-0.2038,-0.2038,-0.1994,-0.1994,-0.1993,0,0,0,0,0,0,0,0,0,0,0,0,0,-0.2006,-0.2007,-0.2074,-0.2075,-0.2075,-0.2076,-0.2075,-0.2075,-0.204,-0.2039,-0.2038,-0.2038,-0.1995,-0.1994,-0.1993,0,0,0,0,0,0,0,0,0,0,0,0,0,-0.2021,-0.2008,-0.2074,-0.2061,-0.206,-0.2076,-0.2075,-0.2075,-0.204,-0.2039,-0.2038,-0.2037,-0.1995,-0.1994,-0.1993,-0.2005,0,0,-0.199,-0.199,0,0,0,0,0,0,0,0,-0.202,-0.2023,-0.2062,-0.2062,-0.2061,-0.206,-0.2035,-0.2051,-0.204,-0.2043,-0.2038,-0.2037,-0.2015,-0.2013,-0.201,-0.2003,-0.2001,-0.199,-0.1989,-0.1989,-0.1989,0,0,0,0,0,0,0,-0.2019,-0.2022,-0.2071,-0.2063,-0.2062,-0.2043,-0.2043,-0.2038,-0.203,-0.2043,-0.2041,-0.2048,-0.2014,-0.2011,-0.2009,-0.2,-0.199,-0.1989,-0.1989,-0.1988,-0.1999,-0.2,0,0,0,0,0,0,-0.203,-0.2022,-0.2071,-0.2071,-0.2042,-0.2045,-0.2046,-0.2058,-0.2031,-0.2028,-0.2049,-0.2046,-0.2013,-0.201,-0.2007,-0.2027,-0.1989,-0.1988,-0.1988,-0.1998,-0.1999,-0.2,0,0,0,0,0,0,-0.2029,-0.2035,-0.2071,-0.2049,-0.2053,-0.2048,-0.2061,-0.2058,-0.2057,-0.2037,-0.2032,-0.2051,-0.2012,-0.2008,-0.2006,-0.2024,-0.1988,-0.1987,-0.1997,-0.1999,-0.2,-0.2062,0,0,0,0,0,0,-0.2027,-0.2034,-0.2043,-0.205,-0.2055,-0.2091,-0.2062,-0.2059,-0.2064,-0.2061,-0.2037,-0.2032,-0.2011,-0.2008,-0.2005,-0.2022,-0.1986,-0.1996,-0.1998,-0.1999,-0.2059,-0.2065,-0.207,0,0,0,0,0,-0.2024,-0.2043,-0.2044,-0.205,-0.2069,-0.2093,-0.2093,-0.2083,-0.2065,-0.2075,-0.2054,-0.2033,-0.2016,-0.2008,-0.2005,-0.2022,-0.1996,-0.1998,-0.1999,-0.2056,-0.2064,-0.207,0,0,0,0,0,0,-0.2016,-0.2042,-0.2042,-0.2068,-0.2085,-0.2088,-0.2095,-0.209,-0.2081,-0.2071,-0.2044,-0.2039,-0.2044,-0.2026,-0.2018,-0.203,-0.2002,-0.2004,-0.2047,-0.2054,-0.2059,-0.2059,-0.1985,0,0,0,0,0,-0.2021,-0.2042,-0.2064,-0.2083,-0.2094,-0.2096,-0.2102,-0.2099,-0.2096,-0.209,-0.2075,-0.2057,-0.205,-0.2046,-0.2036,-0.2045,-0.2033,-0.2054,-0.206,-0.2065,-0.2063,-0.2061,-0.2066,-0.2007,-0.2007,-0.2007,0,0,-0.2022,-0.204,-0.205,-0.2083,-0.209,-0.2115,-0.2096,-0.2113,-0.2127,-0.2088,-0.2094,-0.2078,-0.2057,-0.2065,-0.2066,-0.2052,-0.208,-0.2067,-0.2072,-0.2067,-0.2063,-0.2069,-0.2074,-0.2008,-0.2008,-0.2007,0,0,-0.2037,-0.2053,-0.2076,-0.2097,-0.2122,-0.2129,-0.2138,-0.2149,-0.2147,-0.2158,-0.2131,-0.2126,-0.2117,-0.2107,-0.21,-0.2134,-0.2111,-0.2132,-0.2162,-0.2161,-0.2166,-0.217,-0.2182,-0.2186,-0.2135,-0.2136,-0.2136,0,-0.2036,-0.2071,-0.2086,-0.2117,-0.2136,-0.2139,-0.2167,-0.2174,-0.218,-0.2184,-0.2167,-0.2155,-0.2137,-0.2147,-0.2154,-0.2147,-0.2145,-0.2138,-0.2169,-0.2173,-0.2176,-0.2186,-0.219,-0.2139,-0.2138,-0.2138,-0.2138,0,-0.2071,-0.21,-0.2117,-0.2158,-0.2181,-0.2206,-0.2226,-0.224,-0.2235,-0.2237,-0.2245,-0.2221,-0.2211,-0.2211,-0.219,-0.2207,-0.22,-0.2178,-0.2152,-0.2186,-0.2195,-0.2198,-0.2143,-0.2142,-0.2141,-0.214,0,0,-0.2058,-0.2129,-0.2132,-0.2158,-0.2204,-0.2224,-0.2258,-0.2288,-0.2304,-0.2303,-0.232,-0.2306,-0.2286,-0.2277,-0.2255,-0.2253,-0.2276,-0.2226,-0.2224,-0.2239,-0.2285,-0.2317,-0.2324,-0.2259,-0.226,-0.226,-0.229,0,-0.2078,-0.2138,-0.2171,-0.2222,-0.2251,-0.2279,-0.2312,-0.2336,-0.2346,-0.2363,-0.2347,-0.2347,-0.2315,-0.2307,-0.2303,-0.2278,-0.2284,-0.227,-0.2248,-0.2247,-0.2273,-0.2328,-0.234,-0.237,-0.2293,-0.2293,-0.2293,0,-0.2092,-0.2133,-0.2187,-0.2254,-0.227,-0.2297,-0.2344,-0.2374,-0.2404,-0.2413,-0.2416,-0.2402,-0.24,-0.2362,-0.2348,-0.2341,-0.2318,-0.23,-0.23,-0.2307,-0.2286,-0.2319,-0.2378,-0.2377,-0.2298,-0.2298,-0.2297,0,-0.206,-0.2139,-0.2179,-0.2203,-0.228,-0.2302,-0.2333,-0.2376,-0.2406,-0.2432,-0.2453,-0.245,-0.2445,-0.2419,-0.2385,-0.2364,-0.2375,-0.2339,-0.2353,-0.2355,-0.2348,-0.2349,-0.2402,-0.2333,-0.2333,-0.2333,-0.2333,0,-0.2062,-0.2091,-0.2163,-0.2184,-0.2227,-0.2282,-0.2323,-0.2357,-0.2412,-0.2453,-0.2461,-0.2492,-0.2456,-0.2459,-0.2417,-0.2411,-0.2402,-0.2374,-0.2369,-0.2373,-0.2376,-0.2359,-0.2346,-0.2334,-0.2334,-0.2334,-0.2333,0,-0.2014,-0.2069,-0.211,-0.2187,-0.221,-0.2228,-0.2311,-0.2346,-0.2402,-0.2457,-0.2467,-0.2521,-0.2535,-0.2514,-0.2485,-0.246,-0.2427,-0.2436,-0.2455,-0.2453,-0.2463,-0.2452,-0.245,-0.2384,-0.246,-0.2461,-0.2462,0,-0.1997,-0.2012,-0.2085,-0.2107,-0.2137,-0.2185,-0.2226,-0.2313,-0.2359,-0.2477,-0.2501,-0.2553,-0.2599,-0.2599,-0.2571,-0.2545,-0.2471,-0.2521,-0.2479,-0.2487,-0.2471,-0.2422,-0.236,-0.2499,-0.25,-0.2501,-0.2501,0,-0.1945,-0.1964,-0.1998,-0.2042,-0.2083,-0.2136,-0.22,-0.2246,-0.2362,-0.244,-0.2548,-0.2604,-0.266,-0.2677,-0.2658,-0.2613,-0.25,-0.2539,-0.2535,-0.2508,-0.2468,-0.2394,-0.2462,-0.2509,-0.2509,-0.2508,-0.2508,-0.2507,-0.1886,-0.1891,-0.193,-0.1964,-0.2014,-0.2062,-0.2074,-0.2189,-0.2278,-0.2399,-0.253,-0.2651,-0.2744,-0.2742,-0.2704,-0.2661,-0.2571,-0.2591,-0.258,-0.253,-0.2465,-0.2568,-0.2617,-0.2617,-0.2617,-0.2616,-0.2616,0,-0.1806,-0.1824,-0.1853,-0.189,-0.1904,-0.1959,-0.2038,-0.2049,-0.2138,-0.2337,-0.2463,-0.2721,-0.2779,-0.2817,-0.283,-0.2741,-0.2619,-0.2644,-0.2572,-0.2501,-0.2597,-0.26,-0.2663,-0.2663,-0.2663,-0.2663,-0.2663,-0.2663,-0.1763,-0.1755,-0.1773,-0.176,-0.1784,-0.1765,-0.1782,-0.1842,-0.1953,-0.2166,-0.2392,-0.2628,-0.2699,-0.2999,-0.2936,-0.2806,-0.2664,-0.2612,-0.2525,-0.2617,-0.2611,-0.2604,-0.2604,-0.2668,-0.2668,-0.2389,-0.2387,-0.2386]},{"header":{"parameterUnit":"m.s-1","parameterCategory":2,"la1":30.2991,"la2":30.254,"lo1":-89.0895,"lo2":-89.0444,"dy":0.0017,"dx":0.0017,"nx":28,"ny":28,"refTime":"2023-09-03T09:00:00:Z","depth":"0","parameterNumber":3,"parameterNumberName":"V-component_of_CURRENTS"},"data":[0,0,0,0,0,0,0,0,0,0,0,0,0,0,0,0,0,0,0,0,0,0,0,0,0,0,0,0,0,0,0,0,0,0,0,0,0,0,0,0,0,0,0,0,0,0,0,0,0,0,0,0,0,0,0,0,0,0,-0.016,-0.0159,0,-0.0081,-0.008,-0.0079,-0.0036,-0.0036,-0.0036,-0.0036,0.0066,0.0069,0.0071,0,0,0,0,0,0,0,0,0,0,0,0,0,-0.0216,-0.0216,-0.016,-0.0159,-0.0158,-0.0081,-0.008,-0.0079,-0.0036,-0.0036,-0.0036,-0.0036,0.0065,0.0068,0.0071,0,0,0,0,0,0,0,0,0,0,0,0,0,-0.017,-0.0216,-0.016,-0.0128,-0.0124,-0.0081,-0.008,-0.0079,-0.0036,-0.0036,-0.0036,-0.0035,0.0064,0.0068,0.0072,0.0093,0,0,0.0084,0.0086,0,0,0,0,0,0,0,0,-0.0173,-0.0168,-0.0133,-0.013,-0.0126,-0.0068,-0.0062,-0.002,-0.0036,-0.0069,-0.0036,-0.0035,0.0023,0.003,0.0045,0.0098,0.0103,0.0084,0.0087,0.0088,0.0089,0,0,0,0,0,0,0,-0.0176,-0.0171,-0.0129,-0.0132,-0.0128,-0.0097,-0.0091,-0.0054,-0.0024,-0.0066,-0.0063,-0.0055,0.0025,0.0041,0.0048,0.0104,0.0084,0.0088,0.009,0.0092,0.0185,0.0185,0,0,0,0,0,0,-0.0189,-0.0174,-0.0131,-0.0126,-0.015,-0.0097,-0.0089,-0.0087,-0.0025,-0.0016,-0.0055,-0.0053,0.0034,0.0043,0.0051,0.0087,0.0088,0.0092,0.0094,0.0185,0.0185,0.0185,0,0,0,0,0,0,-0.0191,-0.0187,-0.0134,-0.0148,-0.0139,-0.0096,-0.0093,-0.0085,-0.007,-0.0017,-0.0007,-0.0047,0.0035,0.0046,0.0086,0.0091,0.0094,0.0097,0.0185,0.0185,0.0185,0.0154,0,0,0,0,0,0,-0.0193,-0.0188,-0.0192,-0.0149,-0.0139,-0.0114,-0.0093,-0.0084,-0.0065,-0.0061,-0.0007,0.0003,0.0036,0.008,0.009,0.0096,0.01,0.0184,0.0185,0.0185,0.0155,0.0153,0.0151,0,0,0,0,0,-0.0196,-0.0203,-0.0192,-0.0187,-0.0146,-0.0114,-0.0106,-0.0074,-0.0065,-0.006,-0.002,0.0001,0.0088,0.0083,0.0095,0.0103,0.0184,0.0185,0.0185,0.0156,0.0153,0.0152,0,0,0,0,0,0,-0.0231,-0.0198,-0.0186,-0.0183,-0.0153,-0.0107,-0.0102,-0.0078,-0.0043,-0.0042,0.0008,0.002,0.0056,0.0082,0.0076,0.0129,0.0138,0.014,0.0111,0.011,0.0108,0.0095,0.0104,0,0,0,0,0,-0.0241,-0.0238,-0.0199,-0.0198,-0.0187,-0.0145,-0.0129,-0.0107,-0.007,-0.0055,-0.0014,0.0027,0.0066,0.0089,0.0125,0.0157,0.0185,0.0168,0.0166,0.0165,0.0162,0.0211,0.0213,0.0186,0.0186,0.0186,0,0,-0.0255,-0.0236,-0.0235,-0.0205,-0.0182,-0.0167,-0.0136,-0.0117,-0.0099,-0.0049,-0.0015,0.0023,0.0073,0.0109,0.0127,0.0132,0.0187,0.0165,0.0164,0.0161,0.0211,0.0214,0.0216,0.0186,0.0186,0.0186,0,0,-0.0285,-0.0266,-0.0275,-0.025,-0.0218,-0.0188,-0.0186,-0.014,-0.0115,-0.0078,-0.0038,0.0005,0.0061,0.0103,0.013,0.0141,0.0175,0.0147,0.0134,0.0181,0.0184,0.0187,0.0223,0.0229,0.0149,0.0149,0.0149,0,-0.0305,-0.0307,-0.0272,-0.0268,-0.0251,-0.0202,-0.0201,-0.0165,-0.011,-0.0086,-0.0075,0.002,0.006,0.0115,0.0118,0.0138,0.0164,0.0137,0.0179,0.0182,0.0186,0.0222,0.023,0.0147,0.0147,0.0147,0.0148,0,-0.0333,-0.0334,-0.0336,-0.0315,-0.029,-0.0281,-0.0227,-0.0199,-0.0165,-0.0122,-0.0064,-0.0002,0.0053,0.0074,0.01,0.0145,0.0155,0.0169,0.0183,0.0187,0.0225,0.0233,0.0145,0.0146,0.0146,0.0146,0,0,-0.0386,-0.0364,-0.0365,-0.0364,-0.0313,-0.0299,-0.0264,-0.0217,-0.0194,-0.0131,-0.0092,-0.0019,0.0018,0.005,0.0096,0.0139,0.0185,0.0157,0.0161,0.019,0.0282,0.0336,0.0351,0.0206,0.0207,0.0208,0.0298,0,-0.0423,-0.044,-0.0406,-0.0409,-0.0413,-0.0348,-0.0319,-0.0265,-0.021,-0.0157,-0.0078,-0.0027,0.001,0.0035,0.0086,0.0163,0.0205,0.0159,0.0276,0.0279,0.0326,0.0362,0.042,0.0509,0.0306,0.0307,0.0308,0,-0.0463,-0.0469,-0.0488,-0.0462,-0.0455,-0.0442,-0.0386,-0.0352,-0.0258,-0.0213,-0.0139,-0.0074,0.0012,0.0033,0.0169,0.0136,0.02,0.0257,0.0262,0.033,0.035,0.0474,0.0532,0.0708,0.0321,0.032,0.0319,0,-0.0526,-0.0523,-0.0545,-0.0534,-0.0495,-0.0485,-0.0457,-0.0376,-0.0347,-0.0249,-0.0215,-0.0099,-0.0044,0.0059,0.0189,0.0176,0.0335,0.0335,0.0444,0.0448,0.053,0.054,0.0772,0.042,0.042,0.0419,0.0419,0,-0.0579,-0.0593,-0.0582,-0.059,-0.0608,-0.055,-0.0543,-0.049,-0.0415,-0.0381,-0.0256,-0.0198,-0.0037,0.0081,0.0187,0.0355,0.034,0.0453,0.0484,0.0521,0.0528,0.071,0.0769,0.0423,0.0422,0.0421,0.0421,0,-0.0644,-0.0636,-0.0661,-0.0644,-0.0642,-0.0655,-0.0618,-0.0608,-0.052,-0.047,-0.0442,-0.0271,-0.0101,0.007,0.0252,0.0354,0.0611,0.0559,0.059,0.0623,0.0884,0.0937,0.1166,0.1219,0.0695,0.0698,0.0699,0,-0.0678,-0.0701,-0.0717,-0.0745,-0.0744,-0.0751,-0.0757,-0.0679,-0.0659,-0.0512,-0.0493,-0.0306,-0.0164,0.015,0.0388,0.0614,0.0708,0.0773,0.0764,0.0928,0.101,0.1038,0.1065,0.0857,0.086,0.0863,0.0864,0,-0.0739,-0.0747,-0.0773,-0.0839,-0.0866,-0.0886,-0.0879,-0.0877,-0.0774,-0.0709,-0.0581,-0.0449,-0.0086,0.0243,0.0567,0.0691,0.0911,0.0827,0.1002,0.1169,0.121,0.1265,0.0756,0.0885,0.0883,0.0882,0.0881,0.088,-0.0782,-0.0826,-0.0871,-0.0933,-0.0973,-0.1012,-0.1034,-0.1005,-0.0972,-0.0851,-0.0674,-0.0441,0.012,0.0612,0.0777,0.1183,0.1092,0.1275,0.1327,0.1341,0.1404,0.0936,0.1096,0.1095,0.1095,0.1094,0.1093,0,-0.0836,-0.0889,-0.0959,-0.1033,-0.1101,-0.1091,-0.111,-0.1119,-0.1097,-0.0917,-0.0758,-0.0133,0.0403,0.0891,0.151,0.1695,0.1688,0.1763,0.1832,0.1831,0.1444,0.1465,0.1707,0.1707,0.1706,0.1706,0.1706,0.1706,-0.0867,-0.0952,-0.0996,-0.1131,-0.1182,-0.1255,-0.1272,-0.1267,-0.1162,-0.0882,-0.0539,-0.0225,0.0565,0.1665,0.2212,0.2206,0.2326,0.2303,0.2339,0.2108,0.2066,0.2026,0.2064,0.2427,0.2428,0.2707,0.271,0.2713]}],[{"header":{"parameterUnit":"m.s-1","parameterCategory":2,"la1":30.2991,"la2":30.254,"lo1":-89.0895,"lo2":-89.0444,"dy":0.0017,"dx":0.0017,"nx":28,"ny":28,"refTime":"2023-09-03T09:00:00:Z","depth":"2","parameterNumber":2,"parameterNumberName":"U-component_of_CURRENTS"},"data":[0,0,0,0,0,0,0,0,0,0,0,0,0,0,0,0,0,0,0,0,0,0,0,0,0,0,0,0,0,0,0,0,0,0,0,0,0,0,0,0,0,0,0,0,0,0,0,0,0,0,0,0,0,0,0,0,0,0,-0.1981,-0.1982,0,-0.1982,-0.1982,-0.1982,-0.1949,-0.1948,-0.1948,-0.1947,-0.1906,-0.1905,-0.1905,0,0,0,0,0,0,0,0,0,0,0,0,0,-0.1916,-0.1917,-0.1981,-0.1982,-0.1982,-0.1982,-0.1982,-0.1981,-0.1949,-0.1948,-0.1948,-0.1947,-0.1906,-0.1905,-0.1904,0,0,0,0,0,0,0,0,0,0,0,0,0,-0.193,-0.1918,-0.1981,-0.1969,-0.1968,-0.1982,-0.1982,-0.1981,-0.1949,-0.1948,-0.1947,-0.1947,-0.1906,-0.1905,-0.1904,-0.1914,0,0,-0.1901,-0.1901,0,0,0,0,0,0,0,0,-0.1929,-0.1932,-0.197,-0.197,-0.1969,-0.1968,-0.1944,-0.1958,-0.1949,-0.1952,-0.1947,-0.1946,-0.1926,-0.1923,-0.192,-0.1912,-0.191,-0.1901,-0.1901,-0.19,-0.19,0,0,0,0,0,0,0,-0.1928,-0.1931,-0.1978,-0.1971,-0.197,-0.1951,-0.1952,-0.1946,-0.1939,-0.1952,-0.195,-0.1957,-0.1924,-0.1921,-0.1919,-0.1909,-0.1901,-0.1901,-0.19,-0.19,-0.191,-0.1911,0,0,0,0,0,0,-0.1939,-0.1931,-0.1978,-0.1978,-0.1951,-0.1953,-0.1954,-0.1966,-0.194,-0.1937,-0.1958,-0.1956,-0.1923,-0.192,-0.1917,-0.1938,-0.19,-0.19,-0.1899,-0.1909,-0.191,-0.1911,0,0,0,0,0,0,-0.1938,-0.1943,-0.1978,-0.1957,-0.196,-0.1956,-0.1969,-0.1966,-0.1966,-0.1946,-0.1941,-0.1961,-0.1922,-0.1918,-0.1917,-0.1936,-0.1899,-0.1898,-0.1908,-0.1909,-0.191,-0.1973,0,0,0,0,0,0,-0.1936,-0.1943,-0.1952,-0.1958,-0.1962,-0.1998,-0.197,-0.1967,-0.1973,-0.197,-0.1947,-0.1942,-0.1921,-0.1919,-0.1916,-0.1934,-0.1898,-0.1907,-0.1909,-0.191,-0.197,-0.1976,-0.1982,0,0,0,0,0,-0.1934,-0.1952,-0.1953,-0.1958,-0.1976,-0.1999,-0.2,-0.199,-0.1974,-0.1984,-0.1964,-0.1943,-0.1927,-0.1919,-0.1916,-0.1933,-0.1906,-0.1908,-0.191,-0.1967,-0.1975,-0.1982,0,0,0,0,0,0,-0.1926,-0.1951,-0.1952,-0.1976,-0.1992,-0.1995,-0.2003,-0.1998,-0.1989,-0.1981,-0.1954,-0.1949,-0.1954,-0.1937,-0.1929,-0.1941,-0.1913,-0.1915,-0.1958,-0.1965,-0.1971,-0.1971,-0.1897,0,0,0,0,0,-0.1932,-0.1951,-0.1973,-0.1992,-0.2002,-0.2003,-0.201,-0.2007,-0.2004,-0.1999,-0.1985,-0.1967,-0.1961,-0.1957,-0.1946,-0.1956,-0.1943,-0.1964,-0.197,-0.1975,-0.1974,-0.1971,-0.1977,-0.1917,-0.1917,-0.1917,0,0,-0.1932,-0.195,-0.196,-0.1991,-0.1999,-0.2023,-0.2004,-0.2022,-0.2035,-0.1997,-0.2004,-0.1988,-0.1967,-0.1975,-0.1976,-0.1963,-0.1991,-0.1978,-0.1982,-0.1977,-0.1974,-0.198,-0.1985,-0.1918,-0.1918,-0.1918,0,0,-0.1948,-0.1963,-0.1986,-0.2006,-0.2031,-0.2037,-0.2047,-0.2058,-0.2056,-0.2067,-0.2041,-0.2037,-0.2028,-0.2018,-0.2011,-0.2044,-0.2022,-0.2043,-0.2074,-0.2072,-0.2077,-0.2081,-0.2093,-0.2097,-0.2046,-0.2046,-0.2047,0,-0.1948,-0.1981,-0.1995,-0.2026,-0.2044,-0.2047,-0.2075,-0.2082,-0.2088,-0.2092,-0.2077,-0.2066,-0.2048,-0.2057,-0.2065,-0.2058,-0.2056,-0.205,-0.208,-0.2084,-0.2087,-0.2097,-0.2102,-0.205,-0.2049,-0.2049,-0.2049,0,-0.1982,-0.201,-0.2027,-0.2066,-0.2088,-0.2114,-0.2133,-0.2147,-0.2144,-0.2145,-0.2154,-0.2131,-0.2122,-0.2122,-0.2101,-0.2118,-0.2111,-0.2089,-0.2063,-0.2097,-0.2106,-0.2109,-0.2054,-0.2053,-0.2052,-0.2051,0,0,-0.1971,-0.2038,-0.2042,-0.2067,-0.2112,-0.2131,-0.2165,-0.2194,-0.221,-0.221,-0.2228,-0.2214,-0.2196,-0.2186,-0.2166,-0.2163,-0.2187,-0.2137,-0.2136,-0.2151,-0.2197,-0.2227,-0.2233,-0.2171,-0.2171,-0.2172,-0.2202,0,-0.199,-0.2048,-0.208,-0.2129,-0.2158,-0.2184,-0.2217,-0.2241,-0.2251,-0.2269,-0.2254,-0.2255,-0.2224,-0.2217,-0.2214,-0.2189,-0.2195,-0.2182,-0.2159,-0.2159,-0.2183,-0.2238,-0.2047,-0.2061,-0.2205,-0.2205,-0.2206,0,-0.2005,-0.2044,-0.2096,-0.216,-0.2176,-0.2203,-0.225,-0.2279,-0.2309,-0.2319,-0.2323,-0.2309,-0.2308,-0.2271,-0.2259,-0.2252,-0.223,-0.2212,-0.2212,-0.2217,-0.2195,-0.2046,-0.2061,-0.221,-0.221,-0.221,-0.2209,0,-0.1974,-0.205,-0.2089,-0.2112,-0.2187,-0.2209,-0.224,-0.2282,-0.2311,-0.2339,-0.236,-0.2358,-0.2354,-0.2329,-0.2297,-0.2276,-0.2287,-0.2251,-0.2263,-0.2265,-0.2087,-0.2073,-0.2245,-0.2245,-0.2245,-0.2245,-0.2245,0,-0.1976,-0.2004,-0.2075,-0.2095,-0.2137,-0.2191,-0.2232,-0.2266,-0.232,-0.236,-0.2369,-0.2399,-0.2365,-0.2368,-0.2328,-0.2321,-0.2313,-0.2284,-0.2279,-0.2108,-0.2096,-0.2201,-0.2196,-0.2246,-0.2246,-0.2246,-0.2246,0,-0.193,-0.1984,-0.2024,-0.2099,-0.2121,-0.214,-0.2221,-0.2255,-0.2312,-0.2365,-0.2376,-0.2429,-0.2443,-0.2423,-0.2395,-0.2369,-0.235,-0.2346,-0.2163,-0.2138,-0.2321,-0.2318,-0.2365,-0.2366,-0.2368,-0.2369,-0.2369,0,-0.1914,-0.1929,-0.2,-0.2022,-0.2052,-0.2099,-0.2139,-0.2224,-0.2268,-0.2385,-0.2408,-0.246,-0.2498,-0.2499,-0.2432,-0.2395,-0.2399,-0.2218,-0.2149,-0.2345,-0.2335,-0.233,-0.2326,-0.1931,-0.1928,-0.1926,-0.1924,0,-0.1864,-0.1883,-0.1916,-0.196,-0.1999,-0.2051,-0.2113,-0.2157,-0.227,-0.2341,-0.2445,-0.2494,-0.2514,-0.2407,-0.2372,-0.2308,-0.2211,-0.2177,-0.2402,-0.1957,-0.1945,-0.1933,-0.1941,-0.1903,-0.1905,-0.1907,-0.1908,-0.1909,-0.1807,-0.1811,-0.1849,-0.1883,-0.1932,-0.1977,-0.1988,-0.2076,-0.2154,-0.2211,-0.2368,-0.2367,-0.2362,-0.2223,-0.2143,-0.2043,-0.2175,-0.2047,-0.2048,-0.2054,-0.2025,-0.2019,-0.1985,-0.1988,-0.199,-0.1992,-0.1993,0,-0.172,-0.1747,-0.1774,-0.181,-0.181,-0.1877,-0.1951,-0.1913,-0.196,-0.2054,-0.2125,-0.1971,-0.1958,-0.1931,-0.1773,-0.1782,-0.1692,-0.1694,-0.1553,-0.1577,-0.1597,-0.1539,-0.1373,-0.1371,-0.1369,-0.1368,0,0,-0.1675,-0.1662,-0.1678,-0.1657,-0.1689,-0.1643,-0.1657,-0.1628,-0.1639,-0.1606,-0.1622,-0.1814,-0.1889,-0.162,-0.1576,-0.1449,-0.148,-0.1378,-0.1876,-0.1731,-0.1748,-0.1807,-0.1748,0,0,0,0,0]},{"header":{"parameterUnit":"m.s-1","parameterCategory":2,"la1":30.2991,"la2":30.254,"lo1":-89.0895,"lo2":-89.0444,"dy":0.0017,"dx":0.0017,"nx":28,"ny":28,"refTime":"2023-09-03T09:00:00:Z","depth":"2","parameterNumber":3,"parameterNumberName":"V-component_of_CURRENTS"},"data":[0,0,0,0,0,0,0,0,0,0,0,0,0,0,0,0,0,0,0,0,0,0,0,0,0,0,0,0,0,0,0,0,0,0,0,0,0,0,0,0,0,0,0,0,0,0,0,0,0,0,0,0,0,0,0,0,0,0,-0.0173,-0.0172,0,-0.0096,-0.0095,-0.0094,-0.0051,-0.0051,-0.0051,-0.0051,0.0049,0.0051,0.0054,0,0,0,0,0,0,0,0,0,0,0,0,0,-0.0227,-0.0226,-0.0173,-0.0172,-0.0171,-0.0096,-0.0095,-0.0094,-0.0051,-0.0051,-0.0051,-0.0051,0.0048,0.0051,0.0054,0,0,0,0,0,0,0,0,0,0,0,0,0,-0.0182,-0.0226,-0.0173,-0.0141,-0.0137,-0.0096,-0.0095,-0.0093,-0.0051,-0.0051,-0.0051,-0.0051,0.0047,0.0051,0.0055,0.0076,0,0,0.0066,0.0068,0,0,0,0,0,0,0,0,-0.0185,-0.018,-0.0147,-0.0143,-0.0139,-0.0083,-0.0077,-0.0036,-0.0052,-0.0084,-0.0051,-0.0051,0.0007,0.0014,0.0028,0.008,0.0085,0.0067,0.0069,0.0071,0.0072,0,0,0,0,0,0,0,-0.0188,-0.0183,-0.0142,-0.0146,-0.0141,-0.0111,-0.0105,-0.0069,-0.004,-0.0081,-0.0078,-0.007,0.0009,0.0024,0.0031,0.0086,0.0067,0.007,0.0072,0.0074,0.0165,0.0165,0,0,0,0,0,0,-0.0201,-0.0186,-0.0145,-0.014,-0.0162,-0.011,-0.0104,-0.0101,-0.0041,-0.0031,-0.007,-0.0068,0.0017,0.0026,0.0034,0.0069,0.0071,0.0074,0.0076,0.0165,0.0165,0.0165,0,0,0,0,0,0,-0.0202,-0.0198,-0.0148,-0.0161,-0.0152,-0.011,-0.0107,-0.01,-0.0084,-0.0032,-0.0023,-0.0063,0.0018,0.0029,0.0068,0.0073,0.0076,0.008,0.0165,0.0165,0.0165,0.0135,0,0,0,0,0,0,-0.0204,-0.0199,-0.0203,-0.0162,-0.0152,-0.0128,-0.0107,-0.0098,-0.008,-0.0076,-0.0023,-0.0013,0.0019,0.0062,0.0072,0.0079,0.0083,0.0165,0.0165,0.0165,0.0136,0.0134,0.0133,0,0,0,0,0,-0.0207,-0.0214,-0.0204,-0.0199,-0.0159,-0.0128,-0.0121,-0.0089,-0.008,-0.0075,-0.0036,-0.0015,0.007,0.0066,0.0077,0.0085,0.0165,0.0165,0.0165,0.0137,0.0135,0.0133,0,0,0,0,0,0,-0.0241,-0.0209,-0.0197,-0.0196,-0.0166,-0.0121,-0.0116,-0.0093,-0.0059,-0.0057,-0.0009,0.0004,0.0039,0.0065,0.0058,0.0111,0.0119,0.0122,0.0094,0.0092,0.009,0.0078,0.0086,0,0,0,0,0,-0.0251,-0.0249,-0.021,-0.021,-0.0199,-0.0158,-0.0143,-0.0121,-0.0085,-0.007,-0.0029,0.0011,0.0049,0.0071,0.0106,0.0138,0.0166,0.0149,0.0147,0.0146,0.0143,0.0191,0.0194,0.0166,0.0166,0.0166,0,0,-0.0265,-0.0247,-0.0246,-0.0217,-0.0194,-0.018,-0.0149,-0.0131,-0.0113,-0.0064,-0.0031,0.0007,0.0055,0.0091,0.0108,0.0114,0.0168,0.0146,0.0145,0.0142,0.0192,0.0194,0.0197,0.0166,0.0166,0.0166,0,0,-0.0294,-0.0276,-0.0286,-0.0261,-0.023,-0.0201,-0.0198,-0.0153,-0.0129,-0.0092,-0.0053,-0.0011,0.0044,0.0085,0.0112,0.0122,0.0156,0.0128,0.0116,0.0162,0.0165,0.0168,0.0204,0.021,0.013,0.013,0.013,0,-0.0314,-0.0317,-0.0283,-0.0279,-0.0262,-0.0214,-0.0213,-0.0178,-0.0124,-0.0101,-0.009,0.0003,0.0043,0.0097,0.0099,0.012,0.0145,0.0119,0.016,0.0164,0.0167,0.0203,0.021,0.0129,0.0129,0.0129,0.0129,0,-0.0343,-0.0343,-0.0345,-0.0325,-0.0301,-0.0292,-0.024,-0.0212,-0.0178,-0.0137,-0.0079,-0.0018,0.0036,0.0057,0.0082,0.0127,0.0136,0.0151,0.0164,0.0168,0.0206,0.0214,0.0127,0.0127,0.0127,0.0128,0,0,-0.0395,-0.0373,-0.0374,-0.0374,-0.0324,-0.031,-0.0276,-0.023,-0.0207,-0.0146,-0.0107,-0.0035,0.0002,0.0033,0.0078,0.0121,0.0167,0.0139,0.0142,0.0172,0.0262,0.0314,0.0328,0.0187,0.0189,0.019,0.0278,0,-0.0431,-0.0448,-0.0415,-0.0419,-0.0422,-0.0359,-0.0331,-0.0277,-0.0224,-0.0172,-0.0093,-0.0043,-0.0007,0.0018,0.0069,0.0145,0.0187,0.0141,0.0257,0.026,0.0304,0.0339,0.0273,0.035,0.0286,0.0288,0.0289,0,-0.0472,-0.0477,-0.0497,-0.0471,-0.0465,-0.0452,-0.0397,-0.0363,-0.0272,-0.0227,-0.0154,-0.0089,-0.0005,0.0016,0.0151,0.0118,0.0182,0.0238,0.0243,0.0308,0.0328,0.0337,0.0368,0.0303,0.0301,0.03,0.0299,0,-0.0534,-0.0531,-0.0553,-0.0542,-0.0504,-0.0494,-0.0467,-0.0387,-0.0359,-0.0263,-0.0229,-0.0114,-0.0059,0.0043,0.0171,0.0158,0.0315,0.0315,0.0422,0.0425,0.0401,0.0401,0.04,0.0399,0.0399,0.0399,0.0399,0,-0.0586,-0.06,-0.0589,-0.0597,-0.0615,-0.0558,-0.0552,-0.05,-0.0426,-0.0393,-0.0269,-0.0212,-0.0052,0.0064,0.0169,0.0334,0.032,0.043,0.046,0.0389,0.0387,0.0368,0.0363,0.0402,0.0402,0.0401,0.04,0,-0.065,-0.0642,-0.0667,-0.065,-0.0649,-0.0662,-0.0625,-0.0617,-0.053,-0.0481,-0.0453,-0.0285,-0.0117,0.0052,0.0232,0.0333,0.048,0.0534,0.044,0.0459,0.0553,0.0545,0.0662,0.0664,0.0667,0.0669,0.067,0,-0.0683,-0.0706,-0.0723,-0.075,-0.0749,-0.0757,-0.0763,-0.0687,-0.0667,-0.0523,-0.0504,-0.032,-0.0182,0.0127,0.0336,0.0551,0.0546,0.0614,0.0588,0.0567,0.0584,0.0573,0.0562,0.0534,0.0534,0.0534,0.0535,0,-0.0743,-0.0752,-0.0777,-0.0843,-0.087,-0.089,-0.0884,-0.0881,-0.078,-0.0717,-0.0592,-0.0465,-0.0133,0.0118,0.0426,0.0533,0.058,0.063,0.064,0.0487,0.0457,0.047,0.0462,0.0538,0.0537,0.0537,0.0537,0.0537,-0.0786,-0.0829,-0.0874,-0.0935,-0.0975,-0.1014,-0.1036,-0.1005,-0.0973,-0.0858,-0.0697,-0.0494,-0.0189,0.0231,0.0459,0.0655,0.0653,0.0677,0.0671,0.0666,0.0645,0.0621,0.0728,0.0729,0.0729,0.073,0.0731,0,-0.0838,-0.0892,-0.0961,-0.1034,-0.1098,-0.1092,-0.1111,-0.111,-0.1084,-0.0948,-0.0805,-0.0484,-0.0148,0.0165,0.0484,0.0698,0.0651,0.0715,0.0612,0.0607,0.0604,0.0576,0.0644,0.0644,0.0645,0.0645,0,0,-0.0868,-0.095,-0.0993,-0.1123,-0.1177,-0.1242,-0.1258,-0.1236,-0.1156,-0.1039,-0.0881,-0.0601,-0.0186,0.0032,0.031,0.0478,0.0468,0.0475,0.0515,0.0351,0.0345,0.0551,0.0501,0,0,0,0,0]}],[{"header":{"parameterUnit":"m.s-1","parameterCategory":2,"la1":30.2991,"la2":30.254,"lo1":-89.0895,"lo2":-89.0444,"dy":0.0017,"dx":0.0017,"nx":28,"ny":28,"refTime":"2023-09-03T09:00:00:Z","depth":"4","parameterNumber":2,"parameterNumberName":"U-component_of_CURRENTS"},"data":[0,0,0,0,0,0,0,0,0,0,0,0,0,0,0,0,0,0,0,0,0,0,0,0,0,0,0,0,0,0,0,0,0,0,0,0,0,0,0,0,0,0,0,0,0,0,0,0,0,0,0,0,0,0,0,0,0,0,-0.1229,-0.123,0,-0.1262,-0.1262,-0.1262,-0.128,-0.128,-0.1281,-0.1281,-0.1304,-0.1305,-0.1305,0,0,0,0,0,0,0,0,0,0,0,0,0,-0.1162,-0.1163,-0.1229,-0.123,-0.123,-0.1262,-0.1262,-0.1262,-0.128,-0.128,-0.1281,-0.1281,-0.1304,-0.1305,-0.1305,0,0,0,0,0,0,0,0,0,0,0,0,0,-0.119,-0.1163,-0.1229,-0.1245,-0.1247,-0.1262,-0.1262,-0.1262,-0.128,-0.128,-0.1281,-0.1281,-0.1304,-0.1305,-0.1305,-0.1301,0,0,-0.1307,-0.1307,0,0,0,0,0,0,0,0,-0.1189,-0.1192,-0.1242,-0.1244,-0.1246,-0.1269,-0.1247,-0.1275,-0.128,-0.1265,-0.1281,-0.1281,-0.1293,-0.1295,-0.1297,-0.1302,-0.1303,-0.1307,-0.1307,-0.1308,-0.1308,0,0,0,0,0,0,0,-0.1187,-0.1191,-0.124,-0.1243,-0.1245,-0.1243,-0.1248,-0.1252,-0.1274,-0.1266,-0.1268,-0.1275,-0.1294,-0.1296,-0.1297,-0.1303,-0.1307,-0.1308,-0.1308,-0.1308,-0.1364,-0.1365,0,0,0,0,0,0,-0.1188,-0.1189,-0.1239,-0.1241,-0.122,-0.1245,-0.1249,-0.1259,-0.1275,-0.1278,-0.1275,-0.1276,-0.1295,-0.1297,-0.1298,-0.1357,-0.1308,-0.1308,-0.1309,-0.1362,-0.1364,-0.1365,0,0,0,0,0,0,-0.1187,-0.1192,-0.1237,-0.1217,-0.1223,-0.1246,-0.1257,-0.126,-0.1286,-0.1282,-0.1285,-0.1301,-0.1295,-0.1297,-0.1325,-0.1356,-0.1308,-0.1309,-0.1361,-0.1363,-0.1364,-0.1434,0,0,0,0,0,0,-0.1185,-0.1192,-0.1209,-0.1218,-0.1225,-0.1266,-0.1257,-0.126,-0.129,-0.1292,-0.1304,-0.1306,-0.1296,-0.1324,-0.1326,-0.1356,-0.1309,-0.136,-0.1362,-0.1364,-0.1431,-0.1438,-0.1445,0,0,0,0,0,-0.1182,-0.1201,-0.121,-0.1216,-0.1245,-0.1268,-0.1272,-0.1286,-0.1291,-0.131,-0.1318,-0.1306,-0.1339,-0.1326,-0.1327,-0.1358,-0.1359,-0.1361,-0.1364,-0.1428,-0.1437,-0.1445,0,0,0,0,0,0,-0.1181,-0.1205,-0.1215,-0.1241,-0.1263,-0.1272,-0.1293,-0.1301,-0.1322,-0.1329,-0.1322,-0.1324,-0.1358,-0.1348,-0.1334,-0.1379,-0.1347,-0.1349,-0.1395,-0.1403,-0.141,-0.1407,-0.131,0,0,0,0,0,-0.1189,-0.1212,-0.1232,-0.1257,-0.127,-0.1286,-0.1301,-0.1313,-0.1328,-0.1338,-0.1348,-0.1356,-0.1365,-0.1377,-0.1381,-0.1409,-0.1394,-0.1428,-0.1436,-0.1442,-0.1439,-0.1443,-0.145,-0.1373,-0.1373,-0.1373,0,0,-0.1196,-0.1213,-0.1227,-0.1259,-0.1276,-0.1303,-0.1297,-0.1329,-0.1356,-0.1337,-0.1382,-0.1383,-0.1377,-0.1407,-0.1422,-0.1407,-0.146,-0.1445,-0.145,-0.1444,-0.1446,-0.1454,-0.146,-0.1375,-0.1375,-0.1374,0,0,-0.1214,-0.1238,-0.1261,-0.1284,-0.1319,-0.133,-0.1347,-0.1374,-0.1394,-0.1431,-0.1423,-0.1444,-0.1464,-0.1465,-0.1466,-0.1514,-0.1495,-0.1522,-0.1559,-0.1564,-0.157,-0.1575,-0.1582,-0.1587,-0.1528,-0.1528,-0.1528,0,-0.1223,-0.1254,-0.1273,-0.1302,-0.1326,-0.1347,-0.1379,-0.1401,-0.1436,-0.1455,-0.1456,-0.149,-0.1489,-0.1516,-0.1533,-0.1531,-0.153,-0.1529,-0.1573,-0.1578,-0.1582,-0.1587,-0.1592,-0.1532,-0.1531,-0.1531,-0.1531,0,-0.125,-0.1286,-0.1304,-0.1348,-0.1377,-0.141,-0.1442,-0.1478,-0.1504,-0.1521,-0.1565,-0.1565,-0.1581,-0.159,-0.1577,-0.1611,-0.1601,-0.158,-0.1551,-0.1594,-0.1597,-0.1601,-0.1537,-0.1536,-0.1535,-0.1534,0,0,-0.1237,-0.131,-0.1318,-0.1349,-0.1406,-0.1429,-0.1484,-0.153,-0.1566,-0.1601,-0.1641,-0.166,-0.1661,-0.166,-0.1654,-0.166,-0.1694,-0.1639,-0.1638,-0.1646,-0.1711,-0.1633,-0.1629,-0.1685,-0.1686,-0.1687,-0.1708,0,-0.1255,-0.1312,-0.1348,-0.1411,-0.1442,-0.1488,-0.1535,-0.1582,-0.1619,-0.1664,-0.1675,-0.1706,-0.1688,-0.1701,-0.1708,-0.1694,-0.1705,-0.169,-0.1668,-0.1667,-0.1592,-0.163,-0.1689,-0.171,-0.1711,-0.1711,-0.1712,0,-0.1259,-0.1302,-0.1363,-0.1444,-0.1464,-0.1507,-0.1583,-0.1628,-0.169,-0.1721,-0.1754,-0.1761,-0.1784,-0.1758,-0.1764,-0.1758,-0.1742,-0.1728,-0.1728,-0.1628,-0.1594,-0.1654,-0.1718,-0.1718,-0.1717,-0.1717,-0.1716,0,-0.122,-0.1308,-0.1358,-0.1386,-0.1479,-0.1522,-0.1573,-0.1643,-0.1686,-0.1753,-0.1787,-0.1814,-0.1832,-0.1819,-0.1798,-0.1786,-0.1797,-0.1772,-0.1688,-0.1683,-0.1716,-0.171,-0.1773,-0.1773,-0.1773,-0.1773,-0.1773,0,-0.1205,-0.1249,-0.1349,-0.1375,-0.1441,-0.1511,-0.1581,-0.1636,-0.1714,-0.1759,-0.1807,-0.1836,-0.1848,-0.1855,-0.1824,-0.177,-0.1818,-0.1698,-0.1682,-0.1748,-0.1745,-0.172,-0.1713,-0.1774,-0.1774,-0.1774,-0.1774,0,-0.1145,-0.1214,-0.1275,-0.1383,-0.1423,-0.1463,-0.158,-0.1622,-0.1709,-0.1768,-0.1792,-0.1862,-0.1871,-0.1873,-0.1859,-0.1795,-0.1754,-0.1723,-0.181,-0.1798,-0.1632,-0.1629,-0.1626,-0.1623,-0.1621,-0.1619,-0.1618,0,-0.1117,-0.1143,-0.126,-0.1297,-0.135,-0.1431,-0.1485,-0.1598,-0.1638,-0.1767,-0.1777,-0.1839,-0.1867,-0.1787,-0.1799,-0.1748,-0.1721,-0.1694,-0.1644,-0.1631,-0.1617,-0.1617,-0.1618,-0.1614,-0.1614,-0.1613,-0.1612,0,-0.1056,-0.1103,-0.1152,-0.1226,-0.1291,-0.1358,-0.1442,-0.1468,-0.1591,-0.1693,-0.1722,-0.173,-0.1747,-0.1728,-0.1708,-0.1665,-0.1705,-0.167,-0.1673,-0.1626,-0.1617,-0.1605,-0.1608,-0.1605,-0.1606,-0.1606,-0.1607,0,-0.1004,-0.1016,-0.1081,-0.1134,-0.1213,-0.1251,-0.1318,-0.1377,-0.1438,-0.1585,-0.1594,-0.1663,-0.1739,-0.1687,-0.1665,-0.1624,-0.1588,-0.1521,-0.1531,-0.154,-0.1499,-0.1474,-0.1407,0,0,0,0,0,-0.0944,-0.0945,-0.0987,-0.1037,-0.1108,-0.1149,-0.127,-0.134,-0.147,-0.1455,-0.1522,-0.1535,-0.1531,-0.1566,-0.1499,-0.1607,-0.158,-0.1524,-0.1506,-0.1562,-0.1571,-0.1528,0,0,0,0,0,0,-0.0902,-0.0932,-0.0945,-0.0937,-0.095,-0.1015,-0.1086,-0.1183,-0.1186,-0.1325,-0.1326,-0.1432,-0.1438,-0.153,-0.1458,-0.1467,-0.1425,-0.1573,-0.1569,-0.1557,-0.1565,-0.1572,-0.1531,0,0,0,0,0]},{"header":{"parameterUnit":"m.s-1","parameterCategory":2,"la1":30.2991,"la2":30.254,"lo1":-89.0895,"lo2":-89.0444,"dy":0.0017,"dx":0.0017,"nx":28,"ny":28,"refTime":"2023-09-03T09:00:00:Z","depth":"4","parameterNumber":3,"parameterNumberName":"V-component_of_CURRENTS"},"data":[0,0,0,0,0,0,0,0,0,0,0,0,0,0,0,0,0,0,0,0,0,0,0,0,0,0,0,0,0,0,0,0,0,0,0,0,0,0,0,0,0,0,0,0,0,0,0,0,0,0,0,0,0,0,0,0,0,0,-0.0166,-0.0165,0,-0.0118,-0.0118,-0.0117,-0.0091,-0.0091,-0.0091,-0.0091,-0.0016,-0.0014,-0.0012,0,0,0,0,0,0,0,0,0,0,0,0,0,-0.0191,-0.0191,-0.0166,-0.0165,-0.0165,-0.0118,-0.0118,-0.0117,-0.0091,-0.0091,-0.0091,-0.0091,-0.0017,-0.0014,-0.0012,0,0,0,0,0,0,0,0,0,0,0,0,0,-0.0165,-0.0191,-0.0166,-0.0146,-0.0144,-0.0118,-0.0118,-0.0117,-0.0091,-0.0091,-0.0091,-0.0091,-0.0017,-0.0015,-0.0012,0.0006,0,0,-0.0003,-0.0001,0,0,0,0,0,0,0,0,-0.0167,-0.0164,-0.015,-0.0148,-0.0145,-0.0111,-0.0099,-0.0075,-0.0091,-0.0111,-0.0091,-0.0091,-0.0045,-0.004,-0.0031,0.0009,0.0012,-0.0002,-0.0001,0.0001,0.0001,0,0,0,0,0,0,0,-0.0169,-0.0166,-0.0147,-0.0149,-0.0146,-0.0125,-0.0122,-0.0094,-0.0078,-0.0109,-0.0107,-0.0103,-0.0044,-0.0034,-0.0029,0.0013,-0.0002,0.0,0.0002,0.0003,0.0074,0.0074,0,0,0,0,0,0,-0.0178,-0.0168,-0.0148,-0.0145,-0.0156,-0.0125,-0.0121,-0.0122,-0.0079,-0.0073,-0.0103,-0.0102,-0.0039,-0.0033,-0.0027,0.0001,0.0001,0.0003,0.0005,0.0074,0.0074,0.0074,0,0,0,0,0,0,-0.0178,-0.0176,-0.015,-0.0155,-0.0151,-0.0125,-0.0125,-0.0121,-0.0112,-0.0075,-0.0068,-0.0099,-0.0039,-0.0031,-0.0001,0.0004,0.0005,0.0007,0.0074,0.0074,0.0074,0.0052,0,0,0,0,0,0,-0.0179,-0.0177,-0.0182,-0.0156,-0.0151,-0.014,-0.0125,-0.012,-0.0109,-0.0107,-0.0069,-0.0062,-0.0038,-0.0006,0.0002,0.0008,0.001,0.0074,0.0074,0.0074,0.0053,0.0052,0.0051,0,0,0,0,0,-0.0181,-0.0189,-0.0183,-0.018,-0.0158,-0.014,-0.0135,-0.0116,-0.0109,-0.0108,-0.0079,-0.0063,0.0001,-0.0003,0.0006,0.0013,0.0074,0.0074,0.0074,0.0054,0.0052,0.0051,0,0,0,0,0,0,-0.0203,-0.0186,-0.0179,-0.0182,-0.0164,-0.0136,-0.0135,-0.0119,-0.0095,-0.0095,-0.0058,-0.0049,-0.0023,-0.0003,-0.0008,0.0033,0.0038,0.004,0.002,0.0019,0.0018,0.0007,0.0012,0,0,0,0,0,-0.0211,-0.0213,-0.019,-0.0193,-0.0187,-0.0161,-0.0152,-0.0139,-0.0114,-0.0104,-0.0074,-0.0044,-0.0014,0.0003,0.0029,0.0054,0.0076,0.0063,0.0062,0.0061,0.0058,0.01,0.0102,0.0075,0.0075,0.0075,0,0,-0.0222,-0.0212,-0.0214,-0.0198,-0.0185,-0.0178,-0.0156,-0.0147,-0.0136,-0.0099,-0.0076,-0.0046,-0.0009,0.0018,0.0031,0.0035,0.008,0.0061,0.006,0.0057,0.01,0.0103,0.0105,0.0075,0.0075,0.0075,0,0,-0.0246,-0.0236,-0.0246,-0.0231,-0.0213,-0.0195,-0.0194,-0.0165,-0.0148,-0.0123,-0.0092,-0.0059,-0.0018,0.0015,0.0035,0.0045,0.0071,0.0049,0.0039,0.008,0.0083,0.0085,0.0114,0.0119,0.0051,0.0051,0.0051,0,-0.0261,-0.0267,-0.0246,-0.0246,-0.0237,-0.0205,-0.0208,-0.0184,-0.0147,-0.013,-0.0122,-0.005,-0.0018,0.0025,0.0027,0.0043,0.0064,0.0041,0.0079,0.0082,0.0085,0.0113,0.012,0.005,0.005,0.005,0.005,0,-0.0284,-0.0289,-0.0293,-0.0284,-0.0269,-0.0267,-0.0231,-0.0214,-0.019,-0.016,-0.0116,-0.0067,-0.0024,-0.0007,0.0014,0.0052,0.0058,0.0071,0.0081,0.0086,0.0116,0.0123,0.0048,0.0049,0.0049,0.0049,0,0,-0.0322,-0.0314,-0.0316,-0.0319,-0.0289,-0.0282,-0.0261,-0.023,-0.0216,-0.0169,-0.0141,-0.0082,-0.0051,-0.0027,0.0011,0.0048,0.0089,0.0063,0.0066,0.0089,0.017,0.0161,0.0168,0.0108,0.0109,0.011,0.018,0,-0.0351,-0.037,-0.0349,-0.0359,-0.0365,-0.0323,-0.0306,-0.027,-0.0231,-0.0194,-0.013,-0.0092,-0.0059,-0.0039,0.0006,0.007,0.0106,0.0068,0.0163,0.0166,0.0156,0.0175,0.0114,0.0185,0.0187,0.0188,0.0189,0,-0.0379,-0.0389,-0.0411,-0.0401,-0.0399,-0.0396,-0.0362,-0.0341,-0.0275,-0.0241,-0.0183,-0.0132,-0.006,-0.0041,0.0075,0.0048,0.0101,0.0149,0.0154,0.0157,0.017,0.0181,0.0202,0.0201,0.02,0.0199,0.0198,0,-0.042,-0.0429,-0.0452,-0.0448,-0.043,-0.043,-0.0416,-0.0362,-0.0345,-0.0272,-0.0248,-0.0152,-0.0106,-0.0019,0.0087,0.008,0.0209,0.0214,0.0257,0.0257,0.0253,0.0249,0.0286,0.0286,0.0286,0.0286,0.0286,0,-0.0452,-0.047,-0.048,-0.0489,-0.0514,-0.0479,-0.0485,-0.0449,-0.0401,-0.0378,-0.0281,-0.0239,-0.01,-0.0005,0.0083,0.0196,0.0211,0.0258,0.0278,0.0241,0.0235,0.0257,0.0253,0.0288,0.0288,0.0287,0.0287,0,-0.0488,-0.0494,-0.0524,-0.053,-0.0536,-0.0554,-0.0546,-0.0544,-0.0485,-0.0452,-0.0432,-0.03,-0.0171,-0.0032,0.0119,0.0185,0.0295,0.0327,0.0274,0.029,0.0313,0.0306,0.0377,0.0378,0.0378,0.0378,0.0378,0,-0.0505,-0.0526,-0.0565,-0.0596,-0.0605,-0.0626,-0.0641,-0.0597,-0.0586,-0.0489,-0.0473,-0.034,-0.0242,-0.003,0.0116,0.0293,0.0311,0.0362,0.0338,0.0311,0.0324,0.0317,0.0311,0.0379,0.0379,0.0379,0.0379,0,-0.0534,-0.0555,-0.0582,-0.0651,-0.0687,-0.0719,-0.0729,-0.0726,-0.0662,-0.0613,-0.0505,-0.0372,-0.0221,-0.0042,0.0104,0.0228,0.0329,0.0365,0.0365,0.0343,0.0314,0.0325,0.0318,0.038,0.038,0.038,0.038,0,-0.0556,-0.059,-0.0638,-0.0693,-0.0751,-0.079,-0.0789,-0.0761,-0.0735,-0.0617,-0.0584,-0.0398,-0.0281,-0.0075,0.0059,0.0187,0.0208,0.023,0.0238,0.0238,0.0179,0.012,0.0147,0,0,0,0,0,-0.0571,-0.0614,-0.0675,-0.0736,-0.0796,-0.0826,-0.0836,-0.082,-0.0758,-0.0698,-0.0636,-0.0492,-0.026,-0.0144,-0.0022,0.005,0.022,0.0196,0.0246,0.0386,0.0385,0.0339,0,0,0,0,0,0,-0.0584,-0.0644,-0.0677,-0.0761,-0.0809,-0.0868,-0.0878,-0.084,-0.079,-0.0709,-0.0584,-0.0484,-0.0258,-0.0338,-0.0028,0.0017,0.006,0.0319,0.0322,0.0387,0.0386,0.0385,0.0337,0,0,0,0,0]}]]